User: anonymous   Login
Location: Treviso
(45.6669°N, 12.2430°E)
Time: 02:47:21
(UTC+02:00)
Language:

POLYITAN 1 - Orbit

View from above orbital plane
View from above orbital plane
View from above satellite
View from above satellite

Ground track
Ground track

The orbit data is extracted from the following two-line orbital elements,

1 40042U 14033AJ  19111.82319289  .00000233  00000-0  31060-4 0  9998
2 40042  97.9144  31.8781 0013308 237.1273 122.8663 14.88618333262625
Epoch (UTC): 21 April 2019 19:45:23
Eccentricity: 0.0013308
inclination: 97.9144°
perigee height: 593 km
apogee height: 611 km
right ascension of ascending node: 31.8781°
argument of perigee: 237.1273°
revolutions per day: 14.88618333
mean anomaly at epoch: 122.8663°
orbit number at epoch: 26262

The dashed part of the orbit path shows where the satellite is in the earth's shadow,  

DLR